Hourly Data Report for January 31, 2003

TORONTO CITY
ONTARIO

43°40'00.000" N
79°24'00.000" W
112.50 m
6158355
71508
XTO

Download Data

Hourly Data (January 2003)
Hourly Data Report for January 31, 2003
TIME
LST
Temp Definition
°C
Dew Point Definition
°C
Rel Hum Definition
%
Precip. Amount Definition
mm

Wind Dir Definition
10's deg

Wind Spd Definition
km/h
Visibility Definition
km
Stn Press Definition
kPa
Hmdx Definition


Wind Chill Definition


Weather Definition


00:00 -3.3 -7.2 74     0 LegendMM 101.13     LegendNANA
01:00
02:00 -3.3 -7.2 74     0 LegendMM 101.06     LegendNANA
03:00 -2.9 -6.6 76     0 LegendMM 101.05     LegendNANA
04:00 -5.7 -8.4 81     0 LegendMM 100.99     LegendNANA
05:00 -5.3 -7.4 85     0 LegendMM 100.95     LegendNANA
06:00 -5.2 -7.4 84     0 LegendMM 100.92     LegendNANA
07:00 -6.0 -7.9 86     0 LegendMM 100.97     LegendNANA
08:00 -4.0 -6.1 85     0 LegendMM 100.94     LegendNANA
09:00 -3.1 -6.0 80     0 LegendMM 100.92     LegendNANA
10:00 -2.9 -4.8 87     0 LegendMM 100.88     LegendNANA
11:00 -2.3 -3.4 92     0 LegendMM 100.87     LegendNANA
12:00 -1.5 -3.0 89     0 LegendMM 100.79     LegendNANA
13:00 -1.1 -3.2 86     0 LegendMM 100.70     LegendNANA
14:00
15:00 -0.1 -3.1 80     0 LegendMM 100.59     LegendNANA
16:00 -0.2 -3.5 78     0 LegendMM 100.52     LegendNANA
17:00 0.1 -3.0 80     0 LegendMM 100.45     LegendNANA
18:00 0.1 -2.2 84     0 LegendMM 100.43     LegendNANA
19:00 0.2 -1.6 88     0 LegendMM 100.39     LegendNANA
20:00 0.4 -1.4 88     0 LegendMM 100.35     LegendNANA
21:00 0.8 -1.0 88     0 LegendMM 100.30     LegendNANA
22:00 1.1 -0.8 87     0 LegendMM 100.23     LegendNANA
23:00 1.2 -0.3 90     0 LegendMM 100.16     LegendNANA

Notes on Data Quality.

Legend

  • E = Estimated
  • M = Missing
  • NA = Not Available*
  • [empty] = Indicates an unobserved value
Date modified: